Shaw AFB, SC

11:28 AM EDT on April 23, 2018 (GMT -0400)
Shaw Air Force Base

Weather History for KSSC - December, 2012

Change the Weather History Date:

Wednesday, December 12, 2012

  Actual Average Record
Temperature  
Mean Temperature 48 °F -  
Max Temperature 54 °F 56 °F 80 °F (2007)
Min Temperature 41 °F 35 °F 28 °F (2010)
Degree Days  
Heating Degree Days 17    
Moisture  
Dew Point 39 °F    
Average Humidity 75    
Maximum Humidity 87    
Minimum Humidity 47    
Precipitation  
Precipitation 0.31 in - - ()
Sea Level Pressure  
Sea Level Pressure 30.19 in    
Wind  
Wind Speed 11 mph (NE)    
Max Wind Speed 18 mph    
Max Gust Speed 23 mph    
Visibility 8 miles    
Events Rain    
Averages and records for this station are not official NWS values.
T = Trace of Precipitation, MM = Missing Value Source: NWS Daily Summary

Daily Weather History Graph

Daily Weather History Graph

Search for Another Location

Airport or City:

Astronomy

Dec. 12, 2012 Rise Set
Actual Time 7:18 AM EST 5:13 PM EST
Civil Twilight 6:50 AM EST 5:41 PM EST
Nautical Twilight 6:19 AM EST 6:12 PM EST
Astronomical Twilight 5:48 AM EST 6:42 PM EST
Moon 6:21 AM EST (12/12) 4:48 PM EST (12/12)
Length of Visible Light 10h 50m
Length of Day
9h 55m
Waning Crescent, 1% of the Moon is Illuminated
Dec 12
Waning Crescent
Dec 13
New
Dec 20
First Quarter
Dec 28
Full
Jan 4
Last Quarter

Hourly Weather History & Observations

Time (EST) Temp. Windchill Dew Point Humidity Pressure Visibility Wind Dir Wind Speed Gust Speed Precip Events Conditions
12:55 AM 54.9 °F - 34.9 °F 47% 30.09 in 10.0 mi North 9.2 mph - N/A   Overcast
1:55 AM 53.1 °F - 35.1 °F 50% 30.09 in 10.0 mi NNE 9.2 mph - N/A   Partly Cloudy
2:55 AM 52.9 °F - 33.6 °F 48% 30.12 in 10.0 mi NNE 5.8 mph - N/A   Overcast
3:55 AM 52.2 °F - 33.3 °F 49% 30.13 in 10.0 mi NNE 6.9 mph - N/A   Overcast
4:55 AM 51.1 °F - 32.7 °F 50% 30.13 in 10.0 mi NNE 8.1 mph - N/A   Overcast
5:55 AM 49.6 °F - 32.2 °F 51% 30.13 in 10.0 mi North 9.2 mph - N/A   Clear
6:52 AM 50.0 °F - 33.8 °F 54% 30.17 in 10.0 mi North 8.1 mph - N/A Rain Light Rain
6:55 AM 49.3 °F - 33.6 °F 55% 30.16 in 10.0 mi NNE 8.1 mph - 0.00 in Rain Light Rain
7:07 AM 48.2 °F - 33.8 °F 58% 30.16 in 10.0 mi NNE 11.5 mph - N/A   Mostly Cloudy
7:11 AM 48.2 °F - 33.8 °F 58% 30.16 in 10.0 mi NE 10.4 mph - N/A Rain Light Rain
7:53 AM 46.4 °F 41.1 °F 37.4 °F 71% 30.17 in 10.0 mi NNE 11.5 mph - N/A Rain Light Rain
7:55 AM 47.1 °F - 37.8 °F 70% 30.17 in 10.0 mi NNE 11.5 mph - 0.00 in Rain Light Rain
8:13 AM 46.4 °F 41.5 °F 39.2 °F 76% 30.17 in 10.0 mi NNE 10.4 mph - N/A   Overcast
8:19 AM 46.4 °F 40.4 °F 37.4 °F 71% 30.15 in 10.0 mi NNE 13.8 mph - N/A   Overcast
8:55 AM 47.5 °F - 37.9 °F 69% 30.19 in 10.0 mi NNE 10.4 mph - 0.00 in   Overcast
9:02 AM 48.2 °F - 37.4 °F 66% 30.19 in 10.0 mi NNE 11.5 mph - N/A Rain Light Rain
9:10 AM 48.2 °F - 37.4 °F 66% 30.18 in 10.0 mi NE 12.7 mph - N/A   Overcast
9:30 AM 48.2 °F - 39.2 °F 71% 30.20 in 10.0 mi NNE 10.4 mph - N/A   Overcast
10:00 AM 50.0 °F - 39.2 °F 66% 30.20 in 10.0 mi NE 13.8 mph - N/A   Overcast
10:55 AM 49.5 °F - 41.0 °F 73% 30.21 in 10.0 mi NE 16.1 mph - N/A   Overcast
11:55 AM 49.8 °F - 41.2 °F 72% 30.19 in 10.0 mi NE 16.1 mph - N/A   Overcast
12:55 PM 49.8 °F - 40.3 °F 70% 30.18 in 10.0 mi NNE 15.0 mph - N/A   Overcast
1:20 PM 50.0 °F - 39.2 °F 66% 30.19 in 10.0 mi NE 16.1 mph - N/A   Overcast
1:55 PM 50.4 °F - 38.8 °F 65% 30.18 in 10.0 mi NE 16.1 mph - N/A   Overcast
2:14 PM 50.0 °F - 39.2 °F 66% 30.19 in 10.0 mi NE 11.5 mph - N/A   Light Drizzle
2:23 PM 50.0 °F - 39.2 °F 66% 30.20 in 10.0 mi NNE 13.8 mph - N/A Rain Light Rain
2:55 PM 48.9 °F - 41.5 °F 76% 30.19 in 10.0 mi NE 11.5 mph - 0.01 in Rain Light Rain
3:55 PM 47.8 °F - 41.7 °F 79% 30.19 in 7.0 mi NE 9.2 mph - 0.02 in Rain Rain
4:06 PM 48.2 °F - 42.8 °F 82% 30.19 in 4.0 mi NE 9.2 mph - N/A Rain Light Rain
4:51 PM 46.4 °F 40.1 °F 41.0 °F 81% 30.20 in 7.0 mi NNE 15.0 mph - N/A Rain Light Rain
4:55 PM 46.0 °F 39.3 °F 40.8 °F 82% 30.20 in 8.0 mi NNE 16.1 mph - 0.04 in Rain Light Rain
4:57 PM 46.4 °F 39.8 °F 41.0 °F 81% 30.19 in 8.0 mi NNE 16.1 mph - N/A Rain Light Rain
5:03 PM 46.4 °F 40.4 °F 41.0 °F 81% 30.20 in 10.0 mi NNE 13.8 mph - N/A Rain Light Rain
5:41 PM 44.6 °F 38.4 °F 41.0 °F 87% 30.22 in 5.0 mi NE 12.7 mph - N/A Rain Rain
5:42 PM 44.6 °F 38.8 °F 41.0 °F 87% 30.22 in 5.0 mi NE 11.5 mph - N/A Rain Rain
5:44 PM 44.6 °F 38.8 °F 41.0 °F 87% 30.22 in 5.0 mi NE 11.5 mph - N/A Rain Rain
5:45 PM 44.6 °F 39.2 °F 41.0 °F 87% 30.22 in 5.0 mi NE 10.4 mph - N/A Rain Rain
5:48 PM 44.6 °F 38.4 °F 41.0 °F 87% 30.22 in 5.0 mi ENE 12.7 mph - N/A Rain Rain
5:53 PM 44.6 °F 38.8 °F 41.0 °F 87% 30.22 in 5.0 mi ENE 11.5 mph - N/A Rain Rain
5:55 PM 44.4 °F 39.0 °F 40.3 °F 85% 30.22 in 5.0 mi ENE 10.4 mph - 0.05 in Rain Rain
5:58 PM 44.6 °F 39.2 °F 41.0 °F 87% 30.22 in 6.0 mi ENE 10.4 mph - N/A Rain Rain
6:32 PM 44.6 °F 38.8 °F 41.0 °F 87% 30.23 in 8.0 mi NNE 11.5 mph - N/A Rain Rain
6:55 PM 43.9 °F 36.5 °F 39.9 °F 86% 30.22 in 7.0 mi NE 16.1 mph - 0.06 in Rain Rain
6:58 PM 44.6 °F 37.8 °F 39.2 °F 81% 30.23 in 7.0 mi NE 15.0 mph - N/A Rain Rain
7:14 PM 42.8 °F 35.4 °F 39.2 °F 87% 30.22 in 10.0 mi NE 15.0 mph - N/A Rain Light Rain
7:19 PM 42.8 °F 35.8 °F 39.2 °F 87% 30.22 in 10.0 mi NE 13.8 mph - N/A Rain Light Rain
7:25 PM 42.8 °F 35.1 °F 39.2 °F 87% 30.22 in 10.0 mi NE 16.1 mph - N/A Rain Light Rain
7:33 PM 42.8 °F 36.2 °F 39.2 °F 87% 30.23 in 10.0 mi NE 12.7 mph - N/A Rain Light Rain
7:55 PM 43.0 °F 36.4 °F 38.8 °F 85% 30.24 in 8.0 mi NE 12.7 mph - 0.05 in Rain Rain
8:12 PM 42.8 °F 35.1 °F 39.2 °F 87% 30.22 in 7.0 mi NE 16.1 mph - N/A Rain Rain
8:15 PM 42.8 °F 34.8 °F 39.2 °F 87% 30.21 in 7.0 mi NE 17.3 mph - N/A Rain Rain
8:16 PM 42.8 °F 34.5 °F 39.2 °F 87% 30.21 in 7.0 mi NE 18.4 mph - N/A Rain Rain
8:17 PM 42.8 °F 34.5 °F 39.2 °F 87% 30.21 in 7.0 mi NE 18.4 mph - N/A Rain Rain
8:18 PM 42.8 °F 35.1 °F 39.2 °F 87% 30.20 in 7.0 mi NE 16.1 mph - N/A Rain Rain
8:28 PM 42.8 °F 35.4 °F 39.2 °F 87% 30.21 in 7.0 mi ENE 15.0 mph - N/A Rain Rain
8:33 PM 42.8 °F 35.1 °F 39.2 °F 87% 30.21 in 7.0 mi ENE 16.1 mph - N/A Rain Rain
8:35 PM 42.8 °F 35.1 °F 39.2 °F 87% 30.21 in 7.0 mi NE 16.1 mph - N/A Rain Rain
8:55 PM 42.3 °F 34.8 °F 38.3 °F 86% 30.20 in 7.0 mi ENE 15.0 mph 23.0 mph 0.08 in Rain Rain
9:32 PM 41.0 °F 33.1 °F 37.4 °F 87% 30.21 in 10.0 mi ENE 15.0 mph - N/A Rain Light Rain